Back to catalog

COSMOS 789

AliveMilitaryPO
NORAD 8591·PAYLOAD·🇷🇺 Russia

Launched Jan 20, 1976 from Plesetsk Cosmodrome

Loading…

Next Passes (next 24 hours)

TLE

FreshSource: Space-Track

Epoch: Sep 14, 2026, 10:45 UTC

1 08591U 76005A   26257.44806968  .00000058  00000-0  46027-4 0  9994
2 08591  82.9754 139.8785 0029488 330.7424 202.3218 13.73208919537393

Track COSMOS 789 in real time with AllMySat

Download on the App Store